EW9078 Weather Reports


time (UTC)temp
C
wind
direction
speed
KPH
gust
KPH
rain 1hr
cm
rain 24hr
cm
rain mn
cm
humidity
%
barometer
mb
20260505075504 21 0 0.0 0.0 0.00 0.00 0.00 42 996.6
20260505075004 21 0 0.0 0.0 0.00 0.00 0.00 41 996.5
20260505074505 21 0 0.0 0.0 0.00 0.00 0.00 40 996.6
20260505073505 22 0 0.0 0.0 0.00 0.00 0.00 39 997.0
20260505073004 22 0 0.0 0.0 0.00 0.00 0.00 37 997.1
20260505072005 22 0 0.0 0.0 0.00 0.00 0.00 37 996.9
20260505071505 22 304 0.0 3.2 0.00 0.00 0.00 37 997.1
20260505071004 22 296 1.6 6.4 0.00 0.00 0.00 37 997.2
20260505070504 22 298 1.6 8.0 0.00 0.00 0.00 37 997.2
20260505070005 22 302 3.2 8.0 0.00 0.00 0.00 37 997.1
20260505065504 22 307 1.6 8.0 0.00 0.00 0.00 36 997.1
20260505065004 22 306 1.6 16.1 0.00 0.00 0.00 35 997.1
20260505064005 22 304 3.2 19.3 0.00 0.00 0.00 37 997.2
20260505063505 22 294 1.6 8.0 0.00 0.00 0.00 38 997.4
20260505063004 22 304 1.6 11.3 0.00 0.00 0.00 39 997.6
20260505062504 22 306 1.6 11.3 0.00 0.00 0.00 40 997.3
20260505062004 22 303 0.0 6.4 0.00 0.00 0.00 40 997.2
20260505061504 22 294 1.6 9.7 0.00 0.00 0.00 40 997.3
20260505061004 22 301 3.2 9.7 0.00 0.00 0.00 40 997.6
20260505060504 22 307 1.6 8.0 0.00 0.00 0.00 40 997.6
20260505060005 22 309 1.6 8.0 0.00 0.00 0.00 39 997.6
20260505055505 22 308 1.6 8.0 0.00 0.00 0.00 39 997.5
20260505055004 22 307 3.2 9.7 0.00 0.00 0.00 38 997.4
20260505054505 22 315 3.2 14.5 0.00 0.00 0.00 38 997.7
20260505054005 22 321 1.6 14.5 0.00 0.00 0.00 37 997.8
20260505053505 22 314 1.6 6.4 0.00 0.00 0.00 36 997.7
20260505053004 22 307 1.6 8.0 0.00 0.00 0.00 36 998.0
20260505052005 22 317 3.2 8.0 0.00 0.00 0.00 35 997.6
20260505051506 23 318 3.2 8.0 0.00 0.00 0.00 35 997.7
20260505051004 23 323 0.0 4.8 0.00 0.00 0.00 34 997.7
20260505050504 23 0 0.0 0.0 0.00 0.00 0.00 35 997.7
20260505041505 23 314 0.0 6.4 0.00 0.00 0.00 28 997.8
20260505041004 24 295 0.0 6.4 0.00 0.00 0.00 26 998.2
20260505040504 24 274 0.0 4.8 0.00 0.00 0.00 26 997.8
20260505035504 24 292 0.0 14.5 0.00 0.00 0.00 25 997.7
20260505035005 24 0 0.0 0.0 0.00 0.00 0.00 26 997.6
20260505034505 24 291 0.0 4.8 0.00 0.00 0.00 26 997.6
20260505034004 24 293 1.6 11.3 0.00 0.00 0.00 26 997.5
20260505033505 24 295 1.6 19.3 0.00 0.00 0.00 25 997.5
20260505033004 24 294 3.2 25.7 0.00 0.00 0.00 24 997.2
20260505032504 24 294 4.8 25.7 0.00 0.00 0.00 24 997.2
20260505032005 24 296 6.4 24.1 0.00 0.00 0.00 23 997.2
20260505031505 24 298 6.4 20.9 0.00 0.00 0.00 24 997.1
20260505031004 24 299 8.0 25.7 0.00 0.00 0.00 25 997.1
20260505030005 25 306 8.0 30.6 0.00 0.00 0.00 26 997.1
20260505025505 25 295 6.4 27.4 0.00 0.00 0.00 26 997.0
20260505025005 25 290 3.2 24.1 0.00 0.00 0.00 26 996.9
20260505024505 25 299 6.4 27.4 0.00 0.00 0.00 26 996.7
20260505024004 25 298 9.7 30.6 0.00 0.00 0.00 26 996.6
20260505023504 25 298 8.0 30.6 0.00 0.00 0.00 27 996.5
20260505023004 25 308 6.4 27.4 0.00 0.00 0.00 27 996.3
20260505022504 25 303 8.0 32.2 0.00 0.00 0.00 27 996.5
20260505022004 25 299 9.7 32.2 0.00 0.00 0.00 26 996.3
20260505021504 25 301 11.3 33.8 0.00 0.00 0.00 25 996.3
20260505021004 25 308 12.9 33.8 0.00 0.00 0.00 24 996.1
20260505020505 25 305 12.9 32.2 0.00 0.00 0.00 24 995.9
20260505020005 26 303 12.9 32.2 0.00 0.00 0.00 25 995.7
20260505015505 26 305 12.9 38.6 0.00 0.00 0.00 24 995.8
20260505015004 26 310 12.9 40.2 0.00 0.00 0.00 23 995.6
20260505014504 26 315 12.9 40.2 0.00 0.00 0.00 22 995.5
20260505014004 26 306 14.5 38.6 0.00 0.00 0.00 24 995.6
20260505013504 26 306 19.3 43.5 0.00 0.00 0.00 23 995.6
20260505013004 26 310 17.7 43.5 0.00 0.00 0.00 22 995.6
20260505012504 26 305 14.5 40.2 0.00 0.00 0.00 22 995.6
20260505012005 26 308 16.1 40.2 0.00 0.00 0.00 22 995.6
20260505011505 26 312 17.7 40.2 0.00 0.00 0.00 22 995.5
20260505011005 26 302 17.7 38.6 0.00 0.00 0.00 23 995.6
20260505010505 26 307 16.1 38.6 0.00 0.00 0.00 24 995.4
20260505010005 26 311 14.5 35.4 0.00 0.00 0.00 25 995.3
20260505005504 27 305 16.1 43.5 0.00 0.00 0.00 26 995.5
20260505005004 27 313 16.1 43.5 0.00 0.00 0.00 27 995.6
20260505004505 27 310 14.5 41.8 0.00 0.00 0.00 27 995.6
20260505004004 27 302 9.7 33.8 0.00 0.00 0.00 28 995.4
20260505003504 27 313 8.0 30.6 0.00 0.00 0.00 28 995.4
20260505003004 27 311 8.0 30.6 0.00 0.00 0.00 27 995.1
20260505002504 27 304 9.7 30.6 0.00 0.00 0.00 27 995.4
20260505002004 27 307 14.5 41.8 0.00 0.00 0.00 28 995.4
20260505001504 27 307 16.1 41.8 0.00 0.00 0.00 27 995.5
20260505001004 27 311 12.9 32.2 0.00 0.00 0.00 28 995.3
20260505000504 28 303 11.3 29.0 0.00 0.00 0.00 28 995.3
20260505000004 28 304 12.9 32.2 0.00 0.00 0.00 28 995.3
20260504235504 28 310 12.9 32.2 0.00 0.00 0.00 26 995.6
20260504235004 28 308 9.7 32.2 0.00 0.00 0.00 25 995.5
20260504234504 28 306 8.0 37.0 0.00 0.00 0.00 23 995.6
20260504233505 29 301 8.0 24.1 0.00 0.00 0.00 21 995.4
20260504233005 29 295 8.0 29.0 0.00 0.00 0.00 20 995.3
20260504232505 29 288 9.7 29.0 0.00 0.00 0.00 20 995.4
20260504232005 29 286 8.0 35.4 0.00 0.00 0.00 19 995.4
20260504231504 30 288 8.0 35.4 0.00 0.00 0.00 19 995.5
20260504231004 30 301 8.0 30.6 0.00 0.00 0.00 20 995.6
20260504230504 30 301 9.7 30.6 0.00 0.00 0.00 22 995.6
20260504230005 30 288 8.0 25.7 0.00 0.00 0.00 22 995.6
20260504225504 30 287 6.4 22.5 0.00 0.00 0.00 26 995.6
20260504225004 30 311 9.7 37.0 0.00 0.00 0.00 27 995.6
20260504224504 30 310 11.3 37.0 0.00 0.00 0.00 28 995.6
20260504223504 30 299 12.9 30.6 0.00 0.00 0.00 28 995.7
20260504223004 30 296 11.3 30.6 0.00 0.00 0.00 28 995.6
20260504222504 31 289 8.0 25.7 0.00 0.00 0.00 28 995.6
20260504222004 31 287 6.4 25.7 0.00 0.00 0.00 28 995.6
20260504221504 31 265 6.4 30.6 0.00 0.00 0.00 27 995.6
20260504221005 31 274 9.7 30.6 0.00 0.00 0.00 27 995.6
20260504220505 31 272 9.7 30.6 0.00 0.00 0.00 27 995.6
20260504220004 31 258 4.8 24.1 0.00 0.00 0.00 26 995.7
20260504215004 32 294 6.4 24.1 0.00 0.00 0.00 26 996.0
20260504214504 32 277 6.4 24.1 0.00 0.00 0.00 25 996.1
20260504214004 32 260 4.8 19.3 0.00 0.00 0.00 24 996.1
20260504213504 32 263 6.4 19.3 0.00 0.00 0.00 24 996.0
20260504212505 31 220 9.7 30.6 0.00 0.00 0.00 25 996.1
20260504212004 31 242 6.4 27.4 0.00 0.00 0.00 26 996.1
20260504211505 31 248 8.0 22.5 0.00 0.00 0.00 25 996.2
20260504211004 31 243 8.0 22.5 0.00 0.00 0.00 24 996.3
20260504210504 31 246 8.0 25.7 0.00 0.00 0.00 22 996.5
20260504210004 31 242 9.7 25.7 0.00 0.00 0.00 20 996.6
20260504205505 31 232 6.4 25.7 0.00 0.00 0.00 22 996.6
20260504205004 31 223 8.0 32.2 0.00 0.00 0.00 23 996.7
20260504204004 31 215 8.0 33.8 0.00 0.00 0.00 22 996.6
20260504203505 31 209 4.8 25.7 0.00 0.00 0.00 22 996.6
20260504202504 31 233 9.7 38.6 0.00 0.00 0.00 23 996.8
20260504202004 31 224 3.2 33.8 0.00 0.00 0.00 24 996.9
20260504201504 31 215 6.4 32.2 0.00 0.00 0.00 25 996.8
20260504201004 31 212 9.7 32.2 0.00 0.00 0.00 26 997.2
20260504200504 31 215 6.4 25.7 0.00 0.00 0.00 27 997.2
20260504200004 31 221 9.7 25.7 0.00 0.00 0.00 28 997.2
20260504195504 30 225 11.3 25.7 0.00 0.00 0.00 28 997.2
20260504195004 31 230 6.4 22.5 0.00 0.00 0.00 29 997.2
20260504194504 31 272 3.2 22.5 0.00 0.00 0.00 29 997.2
20260504194004 30 250 4.8 16.1 0.00 0.00 0.00 30 997.4
20260504193504 30 202 6.4 22.5 0.00 0.00 0.00 32 997.2
20260504193004 30 212 6.4 22.5 0.00 0.00 0.00 32 997.3
20260504192505 30 219 4.8 22.5 0.00 0.00 0.00 31 997.7
20260504192004 30 209 6.4 17.7 0.00 0.00 0.00 31 997.6
20260504191004 30 210 9.7 33.8 0.00 0.00 0.00 28 997.8
20260504190504 30 199 8.0 25.7 0.00 0.00 0.00 28 997.8
20260504190004 30 208 6.4 25.7 0.00 0.00 0.00 28 997.8
20260504185504 30 230 6.4 24.1 0.00 0.00 0.00 31 997.8
20260504185004 29 226 6.4 24.1 0.00 0.00 0.00 31 998.2
20260504184504 28 221 9.7 30.6 0.00 0.00 0.00 34 998.2
20260504184004 28 230 9.7 30.6 0.00 0.00 0.00 35 998.2
20260504183003 29 205 4.8 14.5 0.00 0.00 0.00 33 998.3
20260504182505 29 197 6.4 20.9 0.00 0.00 0.00 34 998.3
20260504181004 28 220 8.0 20.9 0.00 0.00 0.00 36 998.6
20260504180004 28 199 6.4 22.5 0.00 0.00 0.00 39 998.7
20260504175504 28 182 4.8 11.3 0.00 0.00 0.00 39 998.7
20260504175004 27 197 4.8 16.1 0.00 0.00 0.00 39 998.7
20260504174004 27 176 6.4 20.9 0.00 0.00 0.00 41 999.1
20260504173004 27 164 6.4 22.5 0.00 0.00 0.00 42 998.9
20260504172504 27 171 4.8 22.5 0.00 0.00 0.00 43 999.1
20260504172004 27 178 4.8 14.5 0.00 0.00 0.00 43 998.7
20260504171504 27 172 3.2 16.1 0.00 0.00 0.00 43 998.8
20260504171004 27 185 3.2 16.1 0.00 0.00 0.00 43 998.8
20260504170504 26 203 3.2 11.3 0.00 0.00 0.00 44 998.8
20260504151004 23 186 1.6 6.4 0.00 0.00 0.00 58 999.1
20260504150504 23 186 1.6 6.4 0.00 0.00 0.00 57 999.0
20260504140504 21 0 0.0 0.0 0.00 0.00 0.00 47 998.6
20260504130503 19 0 0.0 0.0 0.00 0.00 0.00 48 997.5
20260504110504 21 197 0.0 6.4 0.00 0.00 0.00 44 997.1
20260504100504 21 0 0.0 0.0 0.00 0.00 0.00 46 996.7
20260504081505 22 0 0.0 0.0 0.00 0.00 0.00 43 996.9
20260504081005 22 0 0.0 0.0 0.00 0.00 0.00 43 997.1
20260504080505 22 0 0.0 0.0 0.00 0.00 0.00 43 996.9